SCP
0 0 -0 -0 -0 -0 -0 -0 0 0 0 -0 -0 -0 -0 -0 0 0 0 0 0 0 0 0 0 0 0 0 0 0 0 0 -0 -0 -0 -0 -0 -0 0 0 0 0 0
0 0 0 0 0 0 0 0 0 0 0 0 0 0 0 0 0 0 0 0 0 0 0 0 0 0 0 0 0 0 0 0 -0 -0 -0 -0 -0 -0 -0 0 0 0 0
0 0 0 0 0 0 0 0 0 0 0 0 0 0 0 0 0 0 0 0 0 0 0 0 0 0 0 0 0 0 0 0 0 -0 -0 -0 -0 -0 0 0 0 0 0
0 0 0 0 0 0 0 0 0 0 0 0 0 0 0 0 0 0 0 0 0 0 0 0 0 0 0 0 0 0 0 0 0 0 -0 -0 -0 -0 0 0 0 0 0
0 0 0 0 0 0 0 0 0 0 0 0 0 0 0 0 0 0 0 0 0 0 0 0 0 0 0 0 0 0 0 0 0 0 0 0 0 -0 0 0 0 0 0
0 0 0 0 0 0 0 0 0 0 0 0 0 0 0 0 0 0 0 0 0 0 0 0 0 0 0 0 0 0 0 0 0 0 0 0 0 0 0 0 0 0 0
0 0 0 0 0 0 0 0 0 0 0 0 0 0 0 0 0 0 0 0 0 0 0 0 0 0 0 0 0 0 0 0 0 0 0 0 0 -0 0 0 0 0 0
0 0 0 0 0 0 0 0 0 0 0 0 0 0 0 0 0 0 0 0 0 0 0 0 0 0 0 0 0 0 0 0 0 0 0 0 0 0 0 0 0 0 0
0 0 0 0 0 0 0 0 0 0 0 0 0 0 0 0 0 0 0 0 0 0 0 0 0 0 0 0 0 0 0 0 0 0 0 0 0 0 0 0 0 0 0
0 0 0 0 0 0 0 0 0 0 0 0 0 0 0 0 0 0 0 0 0 0 0 0 0 0 0 0 0 0 0 0 0 0 0 0 0 0 0 0 0 0 0
0 0 0 0 0 0 0 0 0 0 0 0 0 0 0 0 0 0 0 0 0 0 0 0 0 0 0 0 0 0 0 0 0 0 0 0 0 0 0 0 0 0 0
0 0 0 0 0 0 0 0 0 0 0 0 0 0 0 0 0 0 0 0 0 0 0 0 0 0 0 0 0 0 0 0 0 0 0 0 0 0 0 0 0 0 0
0 0 0 0 0 0 0 0 0 0 0 0 0 0 0 0 0 0 0 0 0 0 0 0 0 0 0 0 0 0 0 0 0 0 0 0 0 0 0 0 0 0 0
0 0 0 0 0 0 0 0 0 0 0 0 0 0 0 0 0 0 0 0 0 0 0 0 0 0 0 0 0 0 0 0 0 0 0 0 0 0 0 0 0 0 0
0 0 0 0 0 0 0 0 0 0 0 0 0 0 0 0 0 0 0 0 0 0 0 0 0 0 0 0 0 0 0 0 0 0 0 0 0 0 0 0 0 0 0
0 0 0 0 0 0 0 0 0 0 0 0 0 0 0 0 0 0 0 0 0 0 0 0 0 0 0 0 0 0 0 0 0 0 0 0 0 0 0 0 0 0 0
0 0 0 0 0 0 0 0 0 0 0 0 0 0 0 0 0 0 0 0 0 0 0 0 0 0 0 0 0 0 0 0 0 0 0 0 0 0 0 0 0 0 0
0 0 0 0 0 0 0 0 0 0 0 0 0 0 0 0 0 0 0 0 0 0 0 0 0 0 0 0 0 0 0 0 0 0 0 0 0 0 0 0 0 0 0
0 0 0 0 0 0 0 0 0 0 0 0 0 0 0 0 0 0 0 0 0 0 0 0 0 0 0 0 0 0 0 0 0 0 0 0 0 0 0 0 0 0 0
0 0 0 0 0 0 0 0 0 0 0 0 0 0 0 0 0 0 0 0 0 0 0 0 0 0 0 0 0 0 0 0 0 0 0 0 0 0 0 0 0 0 0
0 0 0 0 0 0 0 0 0 0 0 0 0 0 0 0 0 0 0 0 0 0 0 0 0 0 0 0 0 0 0 0 0 0 0 0 0 0 0 0 0 0 0
0 0 0 0 0 0 0 0 0 0 0 0 0 0 0 0 0 0 0 0 0 0 0 0 0 0 0 0 0 0 0 0 0 0 0 0 0 0 0 0 0 0 0
0 0 0 0 0 0 0 0 0 0 0 0 0 0 0 0 0 0 0 0 0 0 0 0 0 0 0 0 0 0 0 0 0 0 0 0 0 0 0 0 0 0 0
0 0 0 0 0 0 0 0 0 0 0 0 0 0 0 0 0 0 0 0 0 0 0 0 0 0 0 0 0 0 0 0 0 0 0 0 0 0 0 0 0 0 0
0 0 0 0 0 0 0 0 0 0 0 0 0 0 0 0 0 0 0 0 0 0 0 0 0 0 0 0 0 0 0 0 0 0 0 0 0 0 0 0 0 0 0
0 0 0 0 0 0 0 0 0 0 0 0 0 0 0 0 0 0 0 0 0 0 -0 -0 0 0 0 0 0 0 0 0 0 0 0 0 0 0 0 0 0 0 0
Wind_Speed_500mb
14 8 12 9 8 5 5 8 8 2 5 9 12 13 16 14 14 13 11 11 11 11 9 8 9 9 8 8 8 8 12 17 19 18 16 15 23 29 31 27 20 16 13
11 11 13 11 8 7 10 11 10 8 5 4 4 2 3 4 7 9 9 12 14 13 12 11 8 8 7 8 7 7 6 9 13 15 15 13 13 19 24 28 23 19 16
10 10 13 12 9 9 11 16 18 15 9 10 10 11 10 9 6 7 9 9 10 10 14 9 9 9 10 11 11 9 8 7 7 10 11 14 13 12 22 26 26 21 19
12 12 12 12 10 12 12 7 7 8 6 11 13 14 16 16 15 17 16 15 13 10 8 8 11 10 9 7 9 10 12 9 6 7 8 12 15 17 20 31 24 23 21
12 11 12 15 14 13 10 8 8 10 10 10 12 15 18 18 21 24 21 20 20 18 17 16 15 14 11 11 12 12 14 14 12 4 1 12 17 15 19 25 24 24 22
11 9 10 12 12 12 12 11 12 13 14 17 19 21 23 24 25 26 27 26 28 22 22 22 19 19 18 17 17 17 16 16 14 13 8 12 17 18 19 24 24 26 26
9 8 6 7 9 12 14 15 16 18 19 20 22 26 31 32 31 29 30 29 30 30 30 27 26 27 27 26 24 21 19 20 18 19 17 20 19 14 20 23 27 32 29
5 3 2 5 9 14 16 18 19 18 20 22 24 29 31 34 36 34 32 35 30 31 30 31 30 27 28 24 27 25 24 23 22 26 27 22 21 22 19 26 25 28 29
6 1 4 8 11 14 18 21 24 25 25 24 25 29 30 32 34 34 31 36 34 34 33 31 29 27 28 26 23 19 23 24 23 23 24 21 20 22 24 21 23 24 29
5 4 6 11 14 13 16 20 21 24 26 26 26 27 29 31 30 29 28 30 27 32 32 31 30 28 29 28 24 19 22 19 21 21 14 10 15 19 17 16 15 11 17
6 4 10 12 19 20 18 17 18 18 21 23 23 23 25 26 26 25 25 26 25 27 28 29 29 29 28 26 23 22 23 22 19 18 21 18 6 10 5 6 12 16 21
5 4 8 14 19 22 24 20 16 16 17 16 18 17 18 19 21 22 23 23 22 22 24 24 23 23 23 21 19 19 22 21 20 16 20 24 16 10 26 15 18 26 31
18 16 12 14 17 19 18 15 16 17 17 16 14 13 13 14 14 14 14 14 14 14 14 13 11 12 13 12 15 17 19 22 20 26 22 22 20 7 11 16 16 11 1
13 14 17 17 22 18 18 15 13 14 14 12 10 10 10 10 10 9 10 10 10 10 11 9 7 4 2 3 6 10 12 13 16 20 14 19 22 25 10 14 29 28 6
10 10 12 11 11 10 11 10 9 10 10 12 11 13 15 14 14 16 15 15 15 16 15 14 9 8 10 11 12 11 11 8 5 4 6 9 12 10 4 12 18 33 29
13 12 10 8 6 6 6 6 7 9 12 13 14 15 15 15 15 16 16 16 16 18 19 19 15 14 15 15 16 14 12 8 5 5 5 4 1 0 15 28 17 31 41
9 8 7 5 2 1 2 4 6 7 9 9 11 12 13 14 15 16 16 16 19 20 20 18 15 16 17 17 17 17 16 19 18 17 16 15 13 8 6 9 10 21 39
12 10 7 4 4 5 4 4 4 6 8 9 10 12 12 13 14 15 15 16 19 16 16 15 15 18 20 19 21 21 20 24 29 25 24 21 21 21 15 16 16 20 27
13 10 9 9 9 8 6 3 3 6 7 8 10 10 12 12 14 15 16 18 18 17 16 20 16 19 23 22 25 24 25 24 24 29 25 24 22 21 23 26 27 27 29
14 12 13 13 12 11 7 3 3 4 5 8 9 10 12 13 15 16 17 17 18 19 21 22 20 20 26 23 22 20 20 20 19 25 27 21 17 17 18 21 23 28 30
15 16 15 16 16 13 7 3 2 1 5 7 10 12 13 16 16 17 19 20 22 22 26 27 26 19 24 24 19 15 13 14 13 22 26 21 15 13 13 17 23 27 28
16 20 20 22 20 16 10 7 4 2 4 6 9 10 13 15 17 19 21 24 25 26 25 26 26 27 21 16 12 7 4 4 9 15 25 23 16 11 12 15 21 27 30
18 21 22 22 20 18 14 12 8 6 3 4 7 8 12 16 18 20 23 25 25 26 28 28 29 27 25 21 16 2 2 2 2 4 20 23 16 14 15 17 21 27 32
16 21 25 24 22 20 17 15 10 6 3 4 5 6 11 14 17 19 22 24 26 28 26 28 29 27 23 23 19 19 15 14 11 3 4 18 15 11 12 12 14 21 28
19 18 26 26 25 23 21 18 13 11 8 5 5 5 8 11 15 18 21 23 24 27 28 28 28 28 26 24 22 19 17 14 16 10 8 19 10 16 11 16 17 26 34
27 24 29 32 30 28 26 22 18 15 10 8 7 5 5 8 12 15 18 20 23 24 25 26 28 27 28 27 25 22 18 16 18 16 19 25 23 18 10 17 18 29 37
Wind_Direction_500mb
195 200 190 187 210 250 301 318 330 334 127 86 69 61 51 42 34 21 10 357 353 349 344 334 357 353 348 348 1 15 33 34 34 37 45 49 47 38 26 20 17 15 15
183 189 184 199 194 237 274 278 285 289 257 240 230 165 139 21 26 4 33 33 17 4 4 355 323 314 339 339 332 340 24 35 45 37 37 30 28 34 18 11 10 13 14
184 181 186 194 205 251 277 276 277 276 250 267 289 300 295 296 297 304 301 319 337 3 354 330 343 318 292 310 320 330 311 327 23 44 24 4 12 6 7 354 356 359 6
177 179 180 189 205 240 265 280 299 306 282 272 277 282 287 285 279 278 285 292 292 285 293 306 303 312 304 289 278 279 288 291 300 47 38 343 349 341 351 343 334 343 345
171 180 185 203 220 239 246 258 276 290 295 290 281 279 278 278 277 281 286 282 279 279 277 284 290 290 283 275 265 258 262 269 277 292 120 324 321 316 320 332 332 334 329
166 171 183 199 223 243 256 264 270 275 281 284 284 281 277 274 273 277 278 275 280 280 283 281 281 281 279 269 260 254 249 256 266 267 243 276 287 310 309 314 318 330 335
167 166 183 214 252 264 270 278 282 286 288 287 284 283 281 281 280 280 278 275 272 272 275 277 279 278 275 270 263 260 261 244 235 250 253 243 253 277 293 298 313 312 317
165 158 263 264 272 286 292 298 299 303 306 306 301 291 292 287 285 279 276 275 274 273 270 268 267 270 274 277 266 262 257 257 241 238 244 246 256 266 277 280 288 297 299
156 173 326 317 313 313 311 313 319 320 315 311 304 302 297 291 289 287 281 275 275 273 269 267 267 267 270 276 283 274 262 257 255 256 257 259 262 267 273 271 275 285 290
90 352 353 328 315 318 319 313 318 318 316 315 312 309 304 302 298 293 287 285 282 278 276 274 270 267 268 269 267 270 268 257 250 254 269 285 284 264 273 271 274 303 320
106 40 346 323 316 314 312 313 316 314 310 312 313 312 310 309 309 307 300 295 287 282 281 278 276 272 269 266 258 254 251 257 239 226 232 219 39 227 251 272 302 311 321
153 306 302 310 307 307 307 316 325 324 320 321 318 318 315 316 315 315 316 312 306 296 289 286 281 275 269 264 252 240 243 245 246 236 241 243 270 302 269 333 321 308 314
195 202 227 280 295 303 308 326 338 338 338 332 327 330 337 335 331 330 331 329 327 322 319 316 305 280 264 254 238 227 228 241 239 248 264 274 278 5 331 351 1 336 161
258 280 317 304 299 311 324 328 334 337 342 344 351 357 350 350 348 354 350 350 344 343 348 347 3 27 75 189 193 194 201 202 212 236 249 255 265 268 315 72 85 61 22
231 276 293 295 300 308 326 339 358 8 23 36 43 47 43 40 41 41 36 34 35 36 35 34 46 91 110 114 113 127 142 148 174 220 262 275 282 291 342 73 69 51 39
269 277 278 283 299 331 350 17 37 51 49 44 43 44 40 36 41 43 38 37 42 43 45 47 58 103 121 114 112 106 100 90 55 30 31 25 2 337 73 59 46 52 49
261 257 262 272 319 12 7 58 63 61 51 32 30 31 27 26 30 31 31 32 40 40 43 40 66 107 123 115 101 87 84 83 84 85 82 77 73 101 106 55 27 49 49
243 244 239 232 194 190 153 113 79 54 42 28 27 24 24 20 25 25 27 34 41 41 52 56 87 121 125 117 98 91 89 89 79 78 76 76 75 70 81 63 45 46 44
240 233 211 196 187 186 178 148 64 41 31 26 25 23 28 26 31 31 35 42 41 44 53 60 87 126 129 119 107 95 94 90 78 64 63 64 68 71 71 66 55 50 45
230 218 200 192 191 194 192 154 77 54 43 38 33 35 40 40 40 41 46 51 51 51 59 62 71 126 128 124 121 121 91 81 76 62 51 51 57 67 70 65 51 45 43
236 223 209 203 204 210 213 197 163 79 63 51 53 51 49 48 47 46 46 49 53 54 58 66 70 112 126 134 136 127 104 74 68 55 43 46 49 63 61 55 47 44 43
240 228 213 206 207 212 215 218 212 121 75 66 67 61 60 57 56 55 54 54 53 53 57 61 68 81 105 166 183 178 210 269 8 56 37 38 50 69 60 52 44 36 34
245 237 222 211 207 211 213 218 209 176 146 99 87 73 70 65 61 58 55 53 51 51 51 51 54 54 57 62 69 173 141 345 27 81 39 32 42 39 29 31 32 28 24
241 239 226 216 208 206 208 207 210 226 200 158 114 90 75 68 62 57 52 50 47 46 46 46 49 49 48 46 45 48 46 35 15 2 29 30 31 20 18 17 19 19 14
240 254 234 223 214 210 208 212 219 218 206 194 153 117 92 73 61 53 47 43 41 40 39 37 37 37 36 37 38 33 21 13 11 357 331 1 32 9 -0 4 1 1 359
235 243 233 224 219 216 214 216 213 215 211 208 180 149 105 70 56 48 43 38 35 34 34 31 29 26 24 20 17 17 16 12 1 2 343 344 351 5 332 351 347 350 350
Wind_Speed_850mb
14 8 12 9 8 5 5 8 8 2 5 9 12 13 16 14 14 13 11 11 11 11 9 8 9 9 8 8 8 8 12 17 19 18 16 15 23 29 31 27 20 16 13
11 11 13 11 8 7 10 11 10 8 5 4 4 2 3 4 7 9 9 12 14 13 12 11 8 8 7 8 7 7 6 9 13 15 15 13 13 19 24 28 23 19 16
10 10 13 12 9 9 11 16 18 15 9 10 10 11 10 9 6 7 9 9 10 10 14 9 9 9 10 11 11 9 8 7 7 10 11 14 13 12 22 26 26 21 19
12 12 12 12 10 12 12 7 7 8 6 11 13 14 16 16 15 17 16 15 13 10 8 8 11 10 9 7 9 10 12 9 6 7 8 12 15 17 20 31 24 23 21
12 11 12 15 14 13 10 8 8 10 10 10 12 15 18 18 21 24 21 20 20 18 17 16 15 14 11 11 12 12 14 14 12 4 1 12 17 15 19 25 24 24 22
11 9 10 12 12 12 12 11 12 13 14 17 19 21 23 24 25 26 27 26 28 22 22 22 19 19 18 17 17 17 16 16 14 13 8 12 17 18 19 24 24 26 26
9 8 6 7 9 12 14 15 16 18 19 20 22 26 31 32 31 29 30 29 30 30 30 27 26 27 27 26 24 21 19 20 18 19 17 20 19 14 20 23 27 32 29
5 3 2 5 9 14 16 18 19 18 20 22 24 29 31 34 36 34 32 35 30 31 30 31 30 27 28 24 27 25 24 23 22 26 27 22 21 22 19 26 25 28 29
6 1 4 8 11 14 18 21 24 25 25 24 25 29 30 32 34 34 31 36 34 34 33 31 29 27 28 26 23 19 23 24 23 23 24 21 20 22 24 21 23 24 29
5 4 6 11 14 13 16 20 21 24 26 26 26 27 29 31 30 29 28 30 27 32 32 31 30 28 29 28 24 19 22 19 21 21 14 10 15 19 17 16 15 11 17
6 4 10 12 19 20 18 17 18 18 21 23 23 23 25 26 26 25 25 26 25 27 28 29 29 29 28 26 23 22 23 22 19 18 21 18 6 10 5 6 12 16 21
5 4 8 14 19 22 24 20 16 16 17 16 18 17 18 19 21 22 23 23 22 22 24 24 23 23 23 21 19 19 22 21 20 16 20 24 16 10 26 15 18 26 31
18 16 12 14 17 19 18 15 16 17 17 16 14 13 13 14 14 14 14 14 14 14 14 13 11 12 13 12 15 17 19 22 20 26 22 22 20 7 11 16 16 11 1
13 14 17 17 22 18 18 15 13 14 14 12 10 10 10 10 10 9 10 10 10 10 11 9 7 4 2 3 6 10 12 13 16 20 14 19 22 25 10 14 29 28 6
10 10 12 11 11 10 11 10 9 10 10 12 11 13 15 14 14 16 15 15 15 16 15 14 9 8 10 11 12 11 11 8 5 4 6 9 12 10 4 12 18 33 29
13 12 10 8 6 6 6 6 7 9 12 13 14 15 15 15 15 16 16 16 16 18 19 19 15 14 15 15 16 14 12 8 5 5 5 4 1 0 15 28 17 31 41
9 8 7 5 2 1 2 4 6 7 9 9 11 12 13 14 15 16 16 16 19 20 20 18 15 16 17 17 17 17 16 19 18 17 16 15 13 8 6 9 10 21 39
12 10 7 4 4 5 4 4 4 6 8 9 10 12 12 13 14 15 15 16 19 16 16 15 15 18 20 19 21 21 20 24 29 25 24 21 21 21 15 16 16 20 27
13 10 9 9 9 8 6 3 3 6 7 8 10 10 12 12 14 15 16 18 18 17 16 20 16 19 23 22 25 24 25 24 24 29 25 24 22 21 23 26 27 27 29
14 12 13 13 12 11 7 3 3 4 5 8 9 10 12 13 15 16 17 17 18 19 21 22 20 20 26 23 22 20 20 20 19 25 27 21 17 17 18 21 23 28 30
15 16 15 16 16 13 7 3 2 1 5 7 10 12 13 16 16 17 19 20 22 22 26 27 26 19 24 24 19 15 13 14 13 22 26 21 15 13 13 17 23 27 28
16 20 20 22 20 16 10 7 4 2 4 6 9 10 13 15 17 19 21 24 25 26 25 26 26 27 21 16 12 7 4 4 9 15 25 23 16 11 12 15 21 27 30
18 21 22 22 20 18 14 12 8 6 3 4 7 8 12 16 18 20 23 25 25 26 28 28 29 27 25 21 16 2 2 2 2 4 20 23 16 14 15 17 21 27 32
16 21 25 24 22 20 17 15 10 6 3 4 5 6 11 14 17 19 22 24 26 28 26 28 29 27 23 23 19 19 15 14 11 3 4 18 15 11 12 12 14 21 28
19 18 26 26 25 23 21 18 13 11 8 5 5 5 8 11 15 18 21 23 24 27 28 28 28 28 26 24 22 19 17 14 16 10 8 19 10 16 11 16 17 26 34
27 24 29 32 30 28 26 22 18 15 10 8 7 5 5 8 12 15 18 20 23 24 25 26 28 27 28 27 25 22 18 16 18 16 19 25 23 18 10 17 18 29 37
Wind_Direction_850mb
195 200 190 187 210 250 301 318 330 334 127 86 69 61 51 42 34 21 10 357 353 349 344 334 357 353 348 348 1 15 33 34 34 37 45 49 47 38 26 20 17 15 15
183 189 184 199 194 237 274 278 285 289 257 240 230 165 139 21 26 4 33 33 17 4 4 355 323 314 339 339 332 340 24 35 45 37 37 30 28 34 18 11 10 13 14
184 181 186 194 205 251 277 276 277 276 250 267 289 300 295 296 297 304 301 319 337 3 354 330 343 318 292 310 320 330 311 327 23 44 24 4 12 6 7 354 356 359 6
177 179 180 189 205 240 265 280 299 306 282 272 277 282 287 285 279 278 285 292 292 285 293 306 303 312 304 289 278 279 288 291 300 47 38 343 349 341 351 343 334 343 345
171 180 185 203 220 239 246 258 276 290 295 290 281 279 278 278 277 281 286 282 279 279 277 284 290 290 283 275 265 258 262 269 277 292 120 324 321 316 320 332 332 334 329
166 171 183 199 223 243 256 264 270 275 281 284 284 281 277 274 273 277 278 275 280 280 283 281 281 281 279 269 260 254 249 256 266 267 243 276 287 310 309 314 318 330 335
167 166 183 214 252 264 270 278 282 286 288 287 284 283 281 281 280 280 278 275 272 272 275 277 279 278 275 270 263 260 261 244 235 250 253 243 253 277 293 298 313 312 317
165 158 263 264 272 286 292 298 299 303 306 306 301 291 292 287 285 279 276 275 274 273 270 268 267 270 274 277 266 262 257 257 241 238 244 246 256 266 277 280 288 297 299
156 173 326 317 313 313 311 313 319 320 315 311 304 302 297 291 289 287 281 275 275 273 269 267 267 267 270 276 283 274 262 257 255 256 257 259 262 267 273 271 275 285 290
90 352 353 328 315 318 319 313 318 318 316 315 312 309 304 302 298 293 287 285 282 278 276 274 270 267 268 269 267 270 268 257 250 254 269 285 284 264 273 271 274 303 320
106 40 346 323 316 314 312 313 316 314 310 312 313 312 310 309 309 307 300 295 287 282 281 278 276 272 269 266 258 254 251 257 239 226 232 219 39 227 251 272 302 311 321
153 306 302 310 307 307 307 316 325 324 320 321 318 318 315 316 315 315 316 312 306 296 289 286 281 275 269 264 252 240 243 245 246 236 241 243 270 302 269 333 321 308 314
195 202 227 280 295 303 308 326 338 338 338 332 327 330 337 335 331 330 331 329 327 322 319 316 305 280 264 254 238 227 228 241 239 248 264 274 278 5 331 351 1 336 161
258 280 317 304 299 311 324 328 334 337 342 344 351 357 350 350 348 354 350 350 344 343 348 347 3 27 75 189 193 194 201 202 212 236 249 255 265 268 315 72 85 61 22
231 276 293 295 300 308 326 339 358 8 23 36 43 47 43 40 41 41 36 34 35 36 35 34 46 91 110 114 113 127 142 148 174 220 262 275 282 291 342 73 69 51 39
269 277 278 283 299 331 350 17 37 51 49 44 43 44 40 36 41 43 38 37 42 43 45 47 58 103 121 114 112 106 100 90 55 30 31 25 2 337 73 59 46 52 49
261 257 262 272 319 12 7 58 63 61 51 32 30 31 27 26 30 31 31 32 40 40 43 40 66 107 123 115 101 87 84 83 84 85 82 77 73 101 106 55 27 49 49
243 244 239 232 194 190 153 113 79 54 42 28 27 24 24 20 25 25 27 34 41 41 52 56 87 121 125 117 98 91 89 89 79 78 76 76 75 70 81 63 45 46 44
240 233 211 196 187 186 178 148 64 41 31 26 25 23 28 26 31 31 35 42 41 44 53 60 87 126 129 119 107 95 94 90 78 64 63 64 68 71 71 66 55 50 45
230 218 200 192 191 194 192 154 77 54 43 38 33 35 40 40 40 41 46 51 51 51 59 62 71 126 128 124 121 121 91 81 76 62 51 51 57 67 70 65 51 45 43
236 223 209 203 204 210 213 197 163 79 63 51 53 51 49 48 47 46 46 49 53 54 58 66 70 112 126 134 136 127 104 74 68 55 43 46 49 63 61 55 47 44 43
240 228 213 206 207 212 215 218 212 121 75 66 67 61 60 57 56 55 54 54 53 53 57 61 68 81 105 166 183 178 210 269 8 56 37 38 50 69 60 52 44 36 34
245 237 222 211 207 211 213 218 209 176 146 99 87 73 70 65 61 58 55 53 51 51 51 51 54 54 57 62 69 173 141 345 27 81 39 32 42 39 29 31 32 28 24
241 239 226 216 208 206 208 207 210 226 200 158 114 90 75 68 62 57 52 50 47 46 46 46 49 49 48 46 45 48 46 35 15 2 29 30 31 20 18 17 19 19 14
240 254 234 223 214 210 208 212 219 218 206 194 153 117 92 73 61 53 47 43 41 40 39 37 37 37 36 37 38 33 21 13 11 357 331 1 32 9 -0 4 1 1 359
235 243 233 224 219 216 214 216 213 215 211 208 180 149 105 70 56 48 43 38 35 34 34 31 29 26 24 20 17 17 16 12 1 2 343 344 351 5 332 351 347 350 350